Year,Month,Day,Hour,Minute,Value (Times are PST for windgust in km/hr)
2016,05,09,00,00,6.40
2016,05,09,00,01,6.40
2016,05,09,00,02,9.60
2016,05,09,00,03,16.10
2016,05,09,00,04,8.10
2016,05,09,00,05,6.40
2016,05,09,00,06,8.10
2016,05,09,00,07,14.50
2016,05,09,00,08,12.90
2016,05,09,00,09,9.60
2016,05,09,00,10,6.40
2016,05,09,00,11,14.50
2016,05,09,00,12,12.90
2016,05,09,00,13,11.30
2016,05,09,00,14,11.30
2016,05,09,00,15,9.60
2016,05,09,00,16,12.90
2016,05,09,00,17,16.10
2016,05,09,00,18,14.50
2016,05,09,00,19,14.50
2016,05,09,00,20,17.70
2016,05,09,00,21,8.10
2016,05,09,00,22,12.90
2016,05,09,00,23,11.30
2016,05,09,00,24,20.90
2016,05,09,00,25,16.10
2016,05,09,00,26,14.50
2016,05,09,00,27,12.90
2016,05,09,00,28,4.80
2016,05,09,00,29,6.40
2016,05,09,00,30,9.60
2016,05,09,00,31,6.40
2016,05,09,00,32,9.60
2016,05,09,00,33,6.40
2016,05,09,00,34,6.40
2016,05,09,00,35,8.10
2016,05,09,00,36,8.10
2016,05,09,00,37,14.50
2016,05,09,00,38,16.10
2016,05,09,00,39,14.50
2016,05,09,00,40,14.50
2016,05,09,00,41,14.50
2016,05,09,00,42,14.50
2016,05,09,00,43,8.10
2016,05,09,00,44,12.90
2016,05,09,00,45,9.60
2016,05,09,00,46,8.10
2016,05,09,00,47,6.40
2016,05,09,00,48,11.30
2016,05,09,00,49,9.60
2016,05,09,00,50,6.40
2016,05,09,00,51,8.10
2016,05,09,00,52,11.30
2016,05,09,00,53,6.40
2016,05,09,00,54,4.80
2016,05,09,00,55,6.40
2016,05,09,00,56,6.40
2016,05,09,00,57,11.30
2016,05,09,00,58,11.30
2016,05,09,00,59,11.30
2016,05,09,01,00,4.80
2016,05,09,01,01,4.80
2016,05,09,01,02,6.40
2016,05,09,01,03,6.40
2016,05,09,01,04,12.90
2016,05,09,01,05,12.90
2016,05,09,01,06,9.60
2016,05,09,01,07,4.80
2016,05,09,01,08,6.40
2016,05,09,01,09,9.60
2016,05,09,01,10,4.80
2016,05,09,01,11,3.20
2016,05,09,01,12,6.40
2016,05,09,01,13,9.60
2016,05,09,01,14,12.90
2016,05,09,01,15,3.20
2016,05,09,01,16,11.30
2016,05,09,01,17,6.40
2016,05,09,01,18,9.60
2016,05,09,01,19,6.40
2016,05,09,01,20,6.40
2016,05,09,01,21,6.40
2016,05,09,01,22,6.40
2016,05,09,01,23,11.30
2016,05,09,01,24,9.60
2016,05,09,01,25,6.40
2016,05,09,01,26,14.50
2016,05,09,01,27,12.90
2016,05,09,01,28,12.90
2016,05,09,01,29,12.90
2016,05,09,01,30,12.90
2016,05,09,01,31,8.10
2016,05,09,01,32,9.60
2016,05,09,01,33,8.10
2016,05,09,01,34,9.60
2016,05,09,01,35,8.10
2016,05,09,01,36,14.50
2016,05,09,01,37,12.90
2016,05,09,01,38,8.10
2016,05,09,01,39,9.60
2016,05,09,01,40,6.40
2016,05,09,01,41,11.30
2016,05,09,01,42,8.10
2016,05,09,01,43,8.10
2016,05,09,01,44,8.10
2016,05,09,01,45,8.10
2016,05,09,01,46,12.90
2016,05,09,01,47,8.10
2016,05,09,01,48,8.10
2016,05,09,01,49,12.90
2016,05,09,01,50,11.30
2016,05,09,01,51,11.30
2016,05,09,01,52,8.10
2016,05,09,01,53,12.90
2016,05,09,01,54,8.10
2016,05,09,01,55,6.40
2016,05,09,01,56,12.90
2016,05,09,01,57,11.30
2016,05,09,01,58,8.10
2016,05,09,01,59,9.60
2016,05,09,02,00,11.30
2016,05,09,02,01,16.10
2016,05,09,02,02,9.60
2016,05,09,02,03,17.70
2016,05,09,02,04,12.90
2016,05,09,02,05,8.10
2016,05,09,02,06,12.90
2016,05,09,02,07,11.30
2016,05,09,02,08,12.90
2016,05,09,02,09,12.90
2016,05,09,02,10,9.60
2016,05,09,02,11,11.30
2016,05,09,02,12,16.10
2016,05,09,02,13,12.90
2016,05,09,02,14,12.90
2016,05,09,02,15,14.50
2016,05,09,02,16,14.50
2016,05,09,02,17,11.30
2016,05,09,02,18,14.50
2016,05,09,02,19,16.10
2016,05,09,02,20,16.10
2016,05,09,02,21,14.50
2016,05,09,02,22,17.70
2016,05,09,02,23,19.30
2016,05,09,02,24,19.30
2016,05,09,02,25,16.10
2016,05,09,02,26,12.90
2016,05,09,02,27,11.30
2016,05,09,02,28,14.50
2016,05,09,02,29,16.10
2016,05,09,02,30,16.10
2016,05,09,02,31,12.90
2016,05,09,02,32,16.10
2016,05,09,02,33,16.10
2016,05,09,02,34,14.50
2016,05,09,02,35,16.10
2016,05,09,02,36,11.30
2016,05,09,02,37,9.60
2016,05,09,02,38,11.30
2016,05,09,02,39,11.30
2016,05,09,02,40,8.10
2016,05,09,02,41,8.10
2016,05,09,02,42,11.30
2016,05,09,02,43,12.90
2016,05,09,02,44,6.40
2016,05,09,02,45,6.40
2016,05,09,02,46,6.40
2016,05,09,02,47,4.80
2016,05,09,02,48,6.40
2016,05,09,02,49,4.80
2016,05,09,02,50,6.40
2016,05,09,02,51,9.60
2016,05,09,02,52,6.40
2016,05,09,02,53,4.80
2016,05,09,02,54,4.80
2016,05,09,02,55,8.10
2016,05,09,02,56,8.10
2016,05,09,02,57,3.20
2016,05,09,02,58,3.20
2016,05,09,02,59,3.20
2016,05,09,03,00,1.60
2016,05,09,03,01,4.80
2016,05,09,03,02,4.80
2016,05,09,03,03,6.40
2016,05,09,03,05,3.20
2016,05,09,03,06,3.20
2016,05,09,03,07,4.80
2016,05,09,03,08,6.40
2016,05,09,03,09,4.80
2016,05,09,03,10,4.80
2016,05,09,03,11,4.80
2016,05,09,03,12,6.40
2016,05,09,03,13,4.80
2016,05,09,03,14,4.80
2016,05,09,03,15,6.40
2016,05,09,03,16,4.80
2016,05,09,03,17,4.80
2016,05,09,03,18,4.80
2016,05,09,03,19,4.80
2016,05,09,03,20,3.20
2016,05,09,03,21,4.80
2016,05,09,03,22,3.20
2016,05,09,03,23,3.20
2016,05,09,03,24,4.80
2016,05,09,03,25,4.80
2016,05,09,03,26,4.80
2016,05,09,03,27,4.80
2016,05,09,03,28,6.40
2016,05,09,03,29,6.40
2016,05,09,03,30,9.60
2016,05,09,03,31,8.10
2016,05,09,03,32,8.10
2016,05,09,03,33,8.10
2016,05,09,03,34,9.60
2016,05,09,03,35,11.30
2016,05,09,03,36,11.30
2016,05,09,03,37,9.60
2016,05,09,03,38,11.30
2016,05,09,03,39,8.10
2016,05,09,03,40,9.60
2016,05,09,03,41,6.40
2016,05,09,03,42,9.60
2016,05,09,03,43,6.40
2016,05,09,03,44,6.40
2016,05,09,03,45,9.60
2016,05,09,03,46,9.60
2016,05,09,03,47,11.30
2016,05,09,03,48,12.90
2016,05,09,03,49,14.50
2016,05,09,03,50,12.90
2016,05,09,03,51,9.60
2016,05,09,03,52,11.30
2016,05,09,03,53,9.60
2016,05,09,03,54,9.60
2016,05,09,03,55,14.50
2016,05,09,03,56,9.60
2016,05,09,03,57,14.50
2016,05,09,03,58,14.50
2016,05,09,03,59,12.90
2016,05,09,04,00,14.50
2016,05,09,04,01,14.50
2016,05,09,04,02,14.50
2016,05,09,04,03,17.70
2016,05,09,04,04,12.90
2016,05,09,04,05,11.30
2016,05,09,04,06,12.90
2016,05,09,04,07,14.50
2016,05,09,04,08,16.10
2016,05,09,04,09,12.90
2016,05,09,04,10,17.70
2016,05,09,04,11,14.50
2016,05,09,04,12,19.30
2016,05,09,04,13,16.10
2016,05,09,04,14,12.90
2016,05,09,04,15,20.90
2016,05,09,04,16,19.30
2016,05,09,04,17,19.30
2016,05,09,04,18,20.90
2016,05,09,04,19,19.30
2016,05,09,04,20,22.50
2016,05,09,04,21,19.30
2016,05,09,04,22,24.20
2016,05,09,04,23,17.70
2016,05,09,04,24,16.10
2016,05,09,04,25,17.70
2016,05,09,04,26,17.70
2016,05,09,04,27,14.50
2016,05,09,04,28,14.50
2016,05,09,04,29,16.10
2016,05,09,04,30,17.70
2016,05,09,04,31,16.10
2016,05,09,04,32,12.90
2016,05,09,04,33,14.50
2016,05,09,04,34,16.10
2016,05,09,04,35,12.90
2016,05,09,04,36,16.10
2016,05,09,04,37,14.50
2016,05,09,04,38,12.90
2016,05,09,04,39,14.50
2016,05,09,04,40,17.70
2016,05,09,04,41,12.90
2016,05,09,04,42,11.30
2016,05,09,04,43,14.50
2016,05,09,04,44,12.90
2016,05,09,04,45,14.50
2016,05,09,04,46,14.50
2016,05,09,04,47,17.70
2016,05,09,04,48,19.30
2016,05,09,04,49,14.50
2016,05,09,04,50,19.30
2016,05,09,04,51,17.70
2016,05,09,04,52,12.90
2016,05,09,04,53,16.10
2016,05,09,04,54,17.70
2016,05,09,04,55,14.50
2016,05,09,04,56,16.10
2016,05,09,04,57,17.70
2016,05,09,04,58,14.50
2016,05,09,04,59,16.10
2016,05,09,05,00,17.70
2016,05,09,05,01,20.90
2016,05,09,05,02,17.70
2016,05,09,05,03,14.50
2016,05,09,05,04,17.70
2016,05,09,05,05,16.10
2016,05,09,05,06,14.50
2016,05,09,05,07,17.70
2016,05,09,05,08,16.10
2016,05,09,05,09,20.90
2016,05,09,05,10,19.30
2016,05,09,05,11,22.50
2016,05,09,05,12,16.10
2016,05,09,05,13,16.10
2016,05,09,05,14,17.70
2016,05,09,05,15,16.10
2016,05,09,05,16,16.10
2016,05,09,05,17,14.50
2016,05,09,05,18,14.50
2016,05,09,05,19,16.10
2016,05,09,05,20,17.70
2016,05,09,05,21,16.10
2016,05,09,05,22,17.70
2016,05,09,05,23,19.30
2016,05,09,05,24,19.30
2016,05,09,05,25,16.10
2016,05,09,05,26,17.70
2016,05,09,05,27,14.50
2016,05,09,05,28,14.50
2016,05,09,05,29,17.70
2016,05,09,05,30,16.10
2016,05,09,05,31,12.90
2016,05,09,05,32,16.10
2016,05,09,05,33,25.70
2016,05,09,05,34,17.70
2016,05,09,05,35,20.90
2016,05,09,05,36,17.70
2016,05,09,05,37,19.30
2016,05,09,05,38,11.30
2016,05,09,05,39,20.90
2016,05,09,05,40,12.90
2016,05,09,05,41,12.90
2016,05,09,05,42,14.50
2016,05,09,05,43,12.90
2016,05,09,05,44,16.10
2016,05,09,05,45,12.90
2016,05,09,05,46,9.60
2016,05,09,05,47,14.50
2016,05,09,05,48,9.60
2016,05,09,05,49,11.30
2016,05,09,05,50,4.80
2016,05,09,05,51,4.80
2016,05,09,05,52,3.20
2016,05,09,05,53,3.20
2016,05,09,05,54,3.20
2016,05,09,05,55,4.80
2016,05,09,05,56,3.20
2016,05,09,05,57,6.40
2016,05,09,05,58,9.60
2016,05,09,05,59,8.10
2016,05,09,06,00,12.90
2016,05,09,06,01,14.50
2016,05,09,06,02,14.50
2016,05,09,06,03,8.10
2016,05,09,06,04,14.50
2016,05,09,06,05,14.50
2016,05,09,06,06,11.30
2016,05,09,06,07,12.90
2016,05,09,06,08,11.30
2016,05,09,06,09,12.90
2016,05,09,06,10,12.90
2016,05,09,06,11,19.30
2016,05,09,06,12,16.10
2016,05,09,06,13,14.50
2016,05,09,06,14,12.90
2016,05,09,06,15,11.30
2016,05,09,06,16,11.30
2016,05,09,06,17,11.30
2016,05,09,06,18,11.30
2016,05,09,06,19,6.40
2016,05,09,06,20,9.60
2016,05,09,06,21,4.80
2016,05,09,06,22,9.60
2016,05,09,06,23,12.90
2016,05,09,06,24,12.90
2016,05,09,06,25,14.50
2016,05,09,06,26,9.60
2016,05,09,06,27,9.60
2016,05,09,06,28,11.30
2016,05,09,06,29,11.30
2016,05,09,06,30,9.60
2016,05,09,06,31,11.30
2016,05,09,06,32,16.10
2016,05,09,06,33,12.90
2016,05,09,06,34,12.90
2016,05,09,06,35,14.50
2016,05,09,06,36,11.30
2016,05,09,06,37,11.30
2016,05,09,06,38,8.10
2016,05,09,06,39,11.30
2016,05,09,06,40,14.50
2016,05,09,06,41,14.50
2016,05,09,06,42,16.10
2016,05,09,06,43,14.50
2016,05,09,06,44,9.60
2016,05,09,06,45,14.50
2016,05,09,06,46,12.90
2016,05,09,06,47,14.50
2016,05,09,06,48,12.90
2016,05,09,06,49,14.50
2016,05,09,06,50,16.10
2016,05,09,06,51,17.70
2016,05,09,06,52,12.90
2016,05,09,06,53,14.50
2016,05,09,06,54,16.10
2016,05,09,06,55,9.60
2016,05,09,06,56,17.70
2016,05,09,06,57,11.30
2016,05,09,06,58,12.90
2016,05,09,06,59,14.50
2016,05,09,07,00,11.30
2016,05,09,07,01,16.10
2016,05,09,07,02,14.50
2016,05,09,07,03,11.30
2016,05,09,07,04,12.90
2016,05,09,07,05,12.90
2016,05,09,07,06,12.90
2016,05,09,07,07,12.90
2016,05,09,07,08,11.30
2016,05,09,07,09,19.30
2016,05,09,07,10,14.50
2016,05,09,07,11,11.30
2016,05,09,07,12,11.30
2016,05,09,07,13,11.30
2016,05,09,07,14,11.30
2016,05,09,07,15,17.70
2016,05,09,07,16,14.50
2016,05,09,07,17,12.90
2016,05,09,07,18,12.90
2016,05,09,07,19,11.30
2016,05,09,07,20,12.90
2016,05,09,07,21,11.30
2016,05,09,07,22,9.60
2016,05,09,07,23,9.60
2016,05,09,07,24,12.90
2016,05,09,07,25,8.10
2016,05,09,07,26,14.50
2016,05,09,07,27,11.30
2016,05,09,07,28,8.10
2016,05,09,07,29,9.60
2016,05,09,07,30,8.10
2016,05,09,07,31,14.50
2016,05,09,07,32,12.90
2016,05,09,07,33,12.90
2016,05,09,07,34,11.30
2016,05,09,07,35,9.60
2016,05,09,07,36,12.90
2016,05,09,07,37,16.10
2016,05,09,07,38,14.50
2016,05,09,07,39,8.10
2016,05,09,07,40,14.50
2016,05,09,07,41,14.50
2016,05,09,07,42,11.30
2016,05,09,07,43,11.30
2016,05,09,07,44,12.90
2016,05,09,07,45,9.60
2016,05,09,07,46,12.90
2016,05,09,07,47,14.50
2016,05,09,07,48,12.90
2016,05,09,07,49,17.70
2016,05,09,07,50,16.10
2016,05,09,07,51,17.70
2016,05,09,07,52,14.50
2016,05,09,07,53,12.90
2016,05,09,07,54,11.30
2016,05,09,07,55,11.30
2016,05,09,07,56,12.90
2016,05,09,07,57,16.10
2016,05,09,07,58,17.70
2016,05,09,07,59,16.10
2016,05,09,08,00,16.10
2016,05,09,08,01,17.70
2016,05,09,08,02,16.10
2016,05,09,08,03,17.70
2016,05,09,08,04,19.30
2016,05,09,08,05,19.30
2016,05,09,08,06,19.30
2016,05,09,08,07,17.70
2016,05,09,08,08,14.50
2016,05,09,08,09,16.10
2016,05,09,08,10,17.70
2016,05,09,08,11,17.70
2016,05,09,08,12,16.10
2016,05,09,08,13,16.10
2016,05,09,08,14,14.50
2016,05,09,08,15,14.50
2016,05,09,08,16,12.90
2016,05,09,08,17,14.50
2016,05,09,08,18,12.90
2016,05,09,08,19,11.30
2016,05,09,08,20,6.40
2016,05,09,08,21,16.10
2016,05,09,08,22,14.50
2016,05,09,08,23,14.50
2016,05,09,08,24,14.50
2016,05,09,08,25,12.90
2016,05,09,08,26,16.10
2016,05,09,08,27,22.50
2016,05,09,08,28,22.50
2016,05,09,08,29,14.50
2016,05,09,08,30,17.70
2016,05,09,08,31,17.70
2016,05,09,08,32,17.70
2016,05,09,08,33,17.70
2016,05,09,08,34,12.90
2016,05,09,08,35,17.70
2016,05,09,08,36,14.50
2016,05,09,08,37,14.50
2016,05,09,08,38,16.10
2016,05,09,08,39,12.90
2016,05,09,08,40,16.10
2016,05,09,08,41,16.10
2016,05,09,08,42,16.10
2016,05,09,08,43,17.70
2016,05,09,08,44,16.10
2016,05,09,08,45,19.30
2016,05,09,08,46,14.50
2016,05,09,08,47,17.70
2016,05,09,08,48,19.30
2016,05,09,08,49,16.10
2016,05,09,08,50,16.10
2016,05,09,08,51,14.50
2016,05,09,08,52,16.10
2016,05,09,08,53,16.10
2016,05,09,08,54,16.10
2016,05,09,08,55,17.70
2016,05,09,08,56,24.20
2016,05,09,08,57,20.90
2016,05,09,08,58,16.10
2016,05,09,08,59,22.50
2016,05,09,09,00,22.50
2016,05,09,09,01,17.70
2016,05,09,09,02,19.30
2016,05,09,09,03,9.60
2016,05,09,09,04,9.60
2016,05,09,09,05,12.90
2016,05,09,09,06,6.40
2016,05,09,09,07,6.40
2016,05,09,09,08,14.50
2016,05,09,09,09,9.60
2016,05,09,09,10,14.50
2016,05,09,09,11,9.60
2016,05,09,09,12,9.60
2016,05,09,09,13,16.10
2016,05,09,09,14,20.90
2016,05,09,09,15,14.50
2016,05,09,09,16,12.90
2016,05,09,09,17,16.10
2016,05,09,09,18,14.50
2016,05,09,09,19,12.90
2016,05,09,09,20,14.50
2016,05,09,09,21,14.50
2016,05,09,09,22,16.10
2016,05,09,09,23,14.50
2016,05,09,09,24,16.10
2016,05,09,09,25,12.90
2016,05,09,09,26,12.90
2016,05,09,09,27,16.10
2016,05,09,09,28,19.30
2016,05,09,09,29,20.90
2016,05,09,09,30,12.90
2016,05,09,09,31,9.60
2016,05,09,09,32,14.50
2016,05,09,09,33,17.70
2016,05,09,09,34,16.10
2016,05,09,09,35,16.10
2016,05,09,09,36,17.70
2016,05,09,09,37,16.10
2016,05,09,09,38,9.60
2016,05,09,09,39,19.30
2016,05,09,09,40,16.10
2016,05,09,09,41,17.70
2016,05,09,09,42,12.90
2016,05,09,09,43,16.10
2016,05,09,09,44,12.90
2016,05,09,09,45,14.50
2016,05,09,09,46,12.90
2016,05,09,09,47,11.30
2016,05,09,09,48,14.50
2016,05,09,09,49,14.50
2016,05,09,09,50,19.30
2016,05,09,09,51,14.50
2016,05,09,09,52,20.90
2016,05,09,09,53,14.50
2016,05,09,09,54,16.10
2016,05,09,09,55,17.70
2016,05,09,09,56,17.70
2016,05,09,09,57,14.50
2016,05,09,09,58,16.10
2016,05,09,09,59,12.90
2016,05,09,10,00,17.70
2016,05,09,10,01,17.70
2016,05,09,10,02,16.10
2016,05,09,10,03,19.30
2016,05,09,10,04,17.70
2016,05,09,10,05,9.60
2016,05,09,10,06,14.50
2016,05,09,10,07,19.30
2016,05,09,10,08,19.30
2016,05,09,10,09,16.10
2016,05,09,10,10,19.30
2016,05,09,10,11,16.10
2016,05,09,10,12,20.90
2016,05,09,10,13,19.30
2016,05,09,10,14,16.10
2016,05,09,10,15,17.70
2016,05,09,10,16,16.10
2016,05,09,10,17,12.90
2016,05,09,10,18,9.60
2016,05,09,10,19,17.70
2016,05,09,10,20,19.30
2016,05,09,10,21,14.50
2016,05,09,10,22,12.90
2016,05,09,10,23,12.90
2016,05,09,10,24,14.50
2016,05,09,10,25,16.10
2016,05,09,10,26,17.70
2016,05,09,10,27,20.90
2016,05,09,10,28,17.70
2016,05,09,10,29,20.90
2016,05,09,10,30,14.50
2016,05,09,10,31,16.10
2016,05,09,10,32,17.70
2016,05,09,10,33,17.70
2016,05,09,10,34,17.70
2016,05,09,10,35,16.10
2016,05,09,10,36,14.50
2016,05,09,10,37,14.50
2016,05,09,10,38,14.50
2016,05,09,10,39,17.70
2016,05,09,10,40,8.10
2016,05,09,10,41,9.60
2016,05,09,10,42,14.50
2016,05,09,10,43,20.90
2016,05,09,10,44,12.90
2016,05,09,10,45,14.50
2016,05,09,10,46,14.50
2016,05,09,10,47,16.10
2016,05,09,10,48,16.10
2016,05,09,10,49,12.90
2016,05,09,10,50,14.50
2016,05,09,10,51,12.90
2016,05,09,10,52,19.30
2016,05,09,10,53,19.30
2016,05,09,10,54,17.70
2016,05,09,10,55,16.10
2016,05,09,10,56,8.10
2016,05,09,10,57,9.60
2016,05,09,10,58,12.90
2016,05,09,10,59,11.30
2016,05,09,11,00,8.10
2016,05,09,11,01,8.10
2016,05,09,11,02,14.50
2016,05,09,11,03,14.50
2016,05,09,11,04,16.10
2016,05,09,11,05,16.10
2016,05,09,11,06,19.30
2016,05,09,11,07,16.10
2016,05,09,11,08,14.50
2016,05,09,11,09,19.30
2016,05,09,11,10,19.30
2016,05,09,11,11,14.50
2016,05,09,11,12,16.10
2016,05,09,11,13,12.90
2016,05,09,11,14,11.30
2016,05,09,11,15,16.10
2016,05,09,11,16,9.60
2016,05,09,11,17,12.90
2016,05,09,11,18,9.60
2016,05,09,11,19,19.30
2016,05,09,11,20,17.70
2016,05,09,11,21,16.10
2016,05,09,11,22,22.50
2016,05,09,11,23,16.10
2016,05,09,11,24,20.90
2016,05,09,11,25,16.10
2016,05,09,11,26,17.70
2016,05,09,11,27,19.30
2016,05,09,11,28,14.50
2016,05,09,11,29,14.50
2016,05,09,11,30,17.70
2016,05,09,11,31,19.30
2016,05,09,11,32,17.70
2016,05,09,11,33,25.70
2016,05,09,11,34,20.90
2016,05,09,11,35,22.50
2016,05,09,11,36,19.30
2016,05,09,11,37,22.50
2016,05,09,11,38,16.10
2016,05,09,11,39,17.70
2016,05,09,11,40,20.90
2016,05,09,11,41,11.30
2016,05,09,11,42,14.50
2016,05,09,11,43,14.50
2016,05,09,11,44,16.10
2016,05,09,11,45,16.10
2016,05,09,11,46,16.10
2016,05,09,11,47,17.70
2016,05,09,11,48,19.30
2016,05,09,11,49,19.30
2016,05,09,11,50,16.10
2016,05,09,11,51,12.90
2016,05,09,11,52,19.30
2016,05,09,11,53,14.50
2016,05,09,11,54,16.10
2016,05,09,11,55,12.90
2016,05,09,11,56,17.70
2016,05,09,11,57,14.50
2016,05,09,11,58,14.50
2016,05,09,11,59,14.50
2016,05,09,12,00,14.50
2016,05,09,12,01,8.10
2016,05,09,12,02,12.90
2016,05,09,12,03,12.90
2016,05,09,12,04,16.10
2016,05,09,12,05,11.30
2016,05,09,12,06,14.50
2016,05,09,12,07,11.30
2016,05,09,12,08,9.60
2016,05,09,12,09,9.60
2016,05,09,12,10,16.10
2016,05,09,12,11,12.90
2016,05,09,12,12,9.60
2016,05,09,12,13,12.90
2016,05,09,12,14,12.90
2016,05,09,12,15,14.50
2016,05,09,12,16,19.30
2016,05,09,12,17,14.50
2016,05,09,12,18,14.50
2016,05,09,12,19,16.10
2016,05,09,12,20,16.10
2016,05,09,12,21,12.90
2016,05,09,12,22,12.90
2016,05,09,12,23,14.50
2016,05,09,12,24,12.90
2016,05,09,12,25,11.30
2016,05,09,12,26,6.40
2016,05,09,12,27,14.50
2016,05,09,12,28,8.10
2016,05,09,12,29,14.50
2016,05,09,12,30,12.90
2016,05,09,12,31,16.10
2016,05,09,12,32,16.10
2016,05,09,12,33,14.50
2016,05,09,12,34,14.50
2016,05,09,12,35,16.10
2016,05,09,12,36,12.90
2016,05,09,12,37,12.90
2016,05,09,12,38,12.90
2016,05,09,12,39,8.10
2016,05,09,12,40,14.50
2016,05,09,12,41,12.90
2016,05,09,12,42,11.30
2016,05,09,12,43,9.60
2016,05,09,12,44,12.90
2016,05,09,12,45,9.60
2016,05,09,12,46,12.90
2016,05,09,12,47,11.30
2016,05,09,12,48,14.50
2016,05,09,12,49,12.90
2016,05,09,12,50,9.60
2016,05,09,12,51,14.50
2016,05,09,12,52,14.50
2016,05,09,12,53,12.90
2016,05,09,12,54,16.10
2016,05,09,12,55,12.90
2016,05,09,12,56,14.50
2016,05,09,12,57,8.10
2016,05,09,12,58,16.10
2016,05,09,12,59,14.50
2016,05,09,13,00,14.50
2016,05,09,13,01,14.50
2016,05,09,13,02,14.50
2016,05,09,13,03,14.50
2016,05,09,13,04,12.90
2016,05,09,13,05,17.70
2016,05,09,13,06,14.50
2016,05,09,13,07,12.90
2016,05,09,13,08,12.90
2016,05,09,13,09,14.50
2016,05,09,13,10,16.10
2016,05,09,13,11,17.70
2016,05,09,13,12,12.90
2016,05,09,13,13,9.60
2016,05,09,13,14,9.60
2016,05,09,13,15,12.90
2016,05,09,13,16,16.10
2016,05,09,13,17,14.50
2016,05,09,13,18,17.70
2016,05,09,13,19,16.10
2016,05,09,13,20,8.10
2016,05,09,13,21,14.50
2016,05,09,13,22,14.50
2016,05,09,13,23,12.90
2016,05,09,13,24,12.90
2016,05,09,13,25,9.60
2016,05,09,13,26,6.40
2016,05,09,13,27,17.70
2016,05,09,13,28,16.10
2016,05,09,13,29,12.90
2016,05,09,13,30,14.50
2016,05,09,13,31,17.70
2016,05,09,13,32,16.10
2016,05,09,13,33,16.10
2016,05,09,13,34,12.90
2016,05,09,13,35,12.90
2016,05,09,13,36,14.50
2016,05,09,13,37,12.90
2016,05,09,13,38,14.50
2016,05,09,13,39,11.30
2016,05,09,13,40,8.10
2016,05,09,13,41,14.50
2016,05,09,13,42,9.60
2016,05,09,13,43,12.90
2016,05,09,13,44,14.50
2016,05,09,13,45,14.50
2016,05,09,13,46,14.50
2016,05,09,13,47,12.90
2016,05,09,13,48,14.50
2016,05,09,13,49,12.90
2016,05,09,13,50,12.90
2016,05,09,13,51,9.60
2016,05,09,13,52,12.90
2016,05,09,13,53,12.90
2016,05,09,13,54,12.90
2016,05,09,13,55,8.10
2016,05,09,13,56,14.50
2016,05,09,13,57,14.50
2016,05,09,13,58,12.90
2016,05,09,13,59,12.90
2016,05,09,14,00,9.60
2016,05,09,14,01,9.60
2016,05,09,14,02,9.60
2016,05,09,14,03,9.60
2016,05,09,14,04,9.60
2016,05,09,14,05,12.90
2016,05,09,14,06,11.30
2016,05,09,14,07,9.60
2016,05,09,14,08,9.60
2016,05,09,14,09,9.60
2016,05,09,14,10,9.60
2016,05,09,14,11,9.60
2016,05,09,14,12,14.50
2016,05,09,14,13,12.90
2016,05,09,14,14,9.60
2016,05,09,14,15,9.60
2016,05,09,14,16,6.40
2016,05,09,14,17,9.60
2016,05,09,14,18,14.50
2016,05,09,14,19,12.90
2016,05,09,14,20,14.50
2016,05,09,14,21,14.50
2016,05,09,14,22,12.90
2016,05,09,14,23,12.90
2016,05,09,14,24,9.60
2016,05,09,14,25,9.60
2016,05,09,14,26,6.40
2016,05,09,14,27,6.40
2016,05,09,14,28,6.40
2016,05,09,14,29,6.40
2016,05,09,14,30,4.80
2016,05,09,14,31,6.40
2016,05,09,14,32,8.10
2016,05,09,14,33,6.40
2016,05,09,14,34,8.10
2016,05,09,14,35,8.10
2016,05,09,14,36,12.90
2016,05,09,14,37,4.80
2016,05,09,14,38,3.20
2016,05,09,14,39,8.10
2016,05,09,14,40,6.40
2016,05,09,14,41,9.60
2016,05,09,14,42,6.40
2016,05,09,14,43,8.10
2016,05,09,14,44,3.20
2016,05,09,14,45,9.60
2016,05,09,14,46,8.10
2016,05,09,14,47,9.60
2016,05,09,14,48,8.10
2016,05,09,14,49,6.40
2016,05,09,14,50,4.80
2016,05,09,14,51,6.40
2016,05,09,14,52,8.10
2016,05,09,14,53,9.60
2016,05,09,14,54,6.40
2016,05,09,14,55,12.90
2016,05,09,14,56,9.60
2016,05,09,14,57,9.60
2016,05,09,14,58,4.80
2016,05,09,14,59,9.60
2016,05,09,15,00,8.10
2016,05,09,15,01,8.10
2016,05,09,15,02,8.10
2016,05,09,15,03,6.40
2016,05,09,15,04,11.30
2016,05,09,15,05,14.50
2016,05,09,15,06,9.60
2016,05,09,15,07,12.90
2016,05,09,15,08,8.10
2016,05,09,15,09,8.10
2016,05,09,15,10,6.40
2016,05,09,15,11,11.30
2016,05,09,15,12,12.90
2016,05,09,15,13,12.90
2016,05,09,15,14,12.90
2016,05,09,15,15,9.60
2016,05,09,15,16,8.10
2016,05,09,15,17,8.10
2016,05,09,15,18,9.60
2016,05,09,15,19,9.60
2016,05,09,15,20,9.60
2016,05,09,15,21,8.10
2016,05,09,15,22,4.80
2016,05,09,15,23,11.30
2016,05,09,15,24,12.90
2016,05,09,15,25,9.60
2016,05,09,15,26,8.10
2016,05,09,15,27,4.80
2016,05,09,15,28,8.10
2016,05,09,15,29,9.60
2016,05,09,15,30,4.80
2016,05,09,15,31,6.40
2016,05,09,15,32,4.80
2016,05,09,15,33,8.10
2016,05,09,15,34,8.10
2016,05,09,15,35,11.30
2016,05,09,15,36,4.80
2016,05,09,15,37,6.40
2016,05,09,15,38,6.40
2016,05,09,15,39,6.40
2016,05,09,15,40,8.10
2016,05,09,15,41,6.40
2016,05,09,15,42,6.40
2016,05,09,15,43,9.60
2016,05,09,15,44,9.60
2016,05,09,15,45,4.80
2016,05,09,15,46,8.10
2016,05,09,15,47,8.10
2016,05,09,15,48,4.80
2016,05,09,15,49,8.10
2016,05,09,15,50,6.40
2016,05,09,15,51,8.10
2016,05,09,15,52,6.40
2016,05,09,15,53,6.40
2016,05,09,15,54,4.80
2016,05,09,15,55,6.40
2016,05,09,15,56,6.40
2016,05,09,15,57,4.80
2016,05,09,15,58,8.10
2016,05,09,15,59,3.20
2016,05,09,16,00,8.10
2016,05,09,16,01,6.40
2016,05,09,16,02,8.10
2016,05,09,16,03,6.40
2016,05,09,16,04,6.40
2016,05,09,16,05,4.80
2016,05,09,16,06,3.20
2016,05,09,16,07,4.80
2016,05,09,16,08,8.10
2016,05,09,16,09,9.60
2016,05,09,16,10,6.40
2016,05,09,16,11,6.40
2016,05,09,16,12,6.40
2016,05,09,16,13,4.80
2016,05,09,16,14,4.80
2016,05,09,16,15,4.80
2016,05,09,16,16,3.20
2016,05,09,16,17,3.20
2016,05,09,16,18,3.20
2016,05,09,16,19,6.40
2016,05,09,16,20,8.10
2016,05,09,16,21,8.10
2016,05,09,16,22,9.60
2016,05,09,16,23,9.60
2016,05,09,16,24,8.10
2016,05,09,16,25,8.10
2016,05,09,16,26,8.10
2016,05,09,16,27,6.40
2016,05,09,16,28,4.80
2016,05,09,16,29,6.40
2016,05,09,16,30,4.80
2016,05,09,16,31,6.40
2016,05,09,16,32,6.40
2016,05,09,16,33,6.40
2016,05,09,16,34,6.40
2016,05,09,16,35,6.40
2016,05,09,16,36,6.40
2016,05,09,16,37,6.40
2016,05,09,16,38,11.30
2016,05,09,16,39,8.10
2016,05,09,16,40,6.40
2016,05,09,16,41,6.40
2016,05,09,16,42,4.80
2016,05,09,16,43,4.80
2016,05,09,16,44,3.20
2016,05,09,16,45,3.20
2016,05,09,16,46,8.10
2016,05,09,16,47,8.10
2016,05,09,16,48,4.80
2016,05,09,16,49,4.80
2016,05,09,16,50,6.40
2016,05,09,16,51,4.80
2016,05,09,16,52,6.40
2016,05,09,16,53,8.10
2016,05,09,16,54,3.20
2016,05,09,16,55,4.80
2016,05,09,16,56,6.40
2016,05,09,16,57,11.30
2016,05,09,16,58,9.60
2016,05,09,16,59,6.40
2016,05,09,17,00,4.80
2016,05,09,17,01,8.10
2016,05,09,17,02,6.40
2016,05,09,17,03,6.40
2016,05,09,17,04,4.80
2016,05,09,17,05,4.80
2016,05,09,17,06,6.40
2016,05,09,17,07,3.20
2016,05,09,17,08,6.40
2016,05,09,17,09,8.10
2016,05,09,17,10,6.40
2016,05,09,17,11,3.20
2016,05,09,17,12,4.80
2016,05,09,17,13,9.60
2016,05,09,17,14,4.80
2016,05,09,17,15,3.20
2016,05,09,17,16,4.80
2016,05,09,17,17,4.80
2016,05,09,17,18,4.80
2016,05,09,17,19,6.40
2016,05,09,17,20,4.80
2016,05,09,17,21,4.80
2016,05,09,17,22,4.80
2016,05,09,17,23,6.40
2016,05,09,17,24,6.40
2016,05,09,17,25,9.60
2016,05,09,17,26,6.40
2016,05,09,17,27,4.80
2016,05,09,17,28,6.40
2016,05,09,17,29,6.40
2016,05,09,17,30,11.30
2016,05,09,17,31,11.30
2016,05,09,17,32,11.30
2016,05,09,17,33,6.40
2016,05,09,17,34,4.80
2016,05,09,17,35,6.40
2016,05,09,17,36,4.80
2016,05,09,17,37,6.40